{"data":{"norad_id":43028,"epoch":"2026-05-25T03:51:51.187104Z","epoch_age_seconds":61041,"freshness":"FRESH","line1":"1 43028U 17075A   26145.16100911  .00002467  00000+0  18335-3 0  9995","line2":"2 43028  34.9955  50.8917 0000905 120.7045 239.3753 15.02680444463781","mean_motion":15.02680444,"eccentricity":9.05e-5,"inclination_deg":34.9955,"raan_deg":50.8917,"arg_perigee_deg":120.7045,"mean_anomaly_deg":239.3753,"bstar":0.00018335,"rev_number":46378,"period_min":95.828757587798,"perigee_km":558.00719200678,"apogee_km":559.26274773332,"semimajor_km":6936.7719698701,"source":"CELESTRAK","updated_at":"2026-05-25T13:37:55.756534Z"}}